Location: Foligno
(42.9600°N, 12.7050°E)
Time: 14:12:29
(UTC+02:00)

ISS - Pass Details

Date: 22 May 2018
Orbit: 402 x 407 km, 51.6° (Epoch: 25 May)

Event Time Altitude Azimuth Distance (km) Brightness Sun altitude
Rises 21:22:03 0° 222° (SW) 2,307 0.1 -8.3°
Reaches altitude 10° 21:24:10 10° 216° (SW) 1,451 -1.0 -8.6°
Maximum altitude 21:27:18 47° 141° (SE) 541 -3.6 -9.1°
Drops below altitude 10° 21:30:27 10° 66° (ENE) 1,457 -1.3 -9.5°
Sets 21:32:35 0° 61° (ENE) 2,319 -0.2 -9.8°
